[[{"header":{"parameterUnit":"m.s-1","parameterCategory":1,"la1":30.2991,"la2":30.254,"lo1":-89.0895,"lo2":-89.0444,"dy":0.0017,"dx":0.0017,"nx":28,"ny":28,"refTime":"2023-09-01T21:00:00:Z","depth":0,"parameterNumber":2,"parameterNumberName":"U-component_of_WINDS"},"data":[0,0,0,0,0,0,0,0,0,0,0,0,0,0,0,0,0,0,0,0,0,0,0,0,0,0,0,0,0,0,0,0,0,0,0,0,0,0,0,0,0,0,0,0,0,0,0,0,0,0,0,0,0,0,0,0,0,0,-2.4248,-2.4248,0,-2.4242,-2.4242,-2.4241,-2.4211,-2.421,-2.421,-2.4209,-2.4203,-2.4203,-2.4204,0,0,0,0,0,0,0,0,0,0,0,0,0,-2.4237,-2.4237,-2.4248,-2.4248,-2.4248,-2.4242,-2.4242,-2.4241,-2.4211,-2.421,-2.4209,-2.4209,-2.4203,-2.4203,-2.4204,0,0,0,0,0,0,0,0,0,0,0,0,0,-2.4237,-2.4237,-2.4248,-2.4232,-2.4231,-2.4242,-2.4242,-2.4241,-2.4211,-2.421,-2.4209,-2.4208,-2.4202,-2.4203,-2.4204,-2.423,0,0,-2.4206,-2.4207,0,0,0,0,0,0,0,0,-2.4237,-2.4238,-2.4235,-2.4233,-2.4232,-2.4226,-2.4235,-2.4238,-2.4212,-2.4219,-2.4209,-2.4208,-2.4211,-2.4211,-2.4212,-2.423,-2.4229,-2.4206,-2.4207,-2.4207,-2.4207,0,0,0,0,0,0,0,-2.4237,-2.4238,-2.4246,-2.4235,-2.4233,-2.4226,-2.4225,-2.4235,-2.4221,-2.4218,-2.4216,-2.4215,-2.421,-2.4212,-2.4212,-2.4229,-2.4206,-2.4207,-2.4207,-2.4208,-2.4267,-2.4269,0,0,0,0,0,0,-2.4239,-2.4238,-2.4246,-2.4246,-2.4232,-2.4227,-2.4226,-2.4229,-2.4221,-2.4219,-2.4216,-2.4214,-2.4211,-2.4211,-2.4212,-2.4241,-2.4207,-2.4208,-2.4208,-2.4266,-2.4268,-2.4269,0,0,0,0,0,0,-2.4239,-2.424,-2.4246,-2.4241,-2.4241,-2.4228,-2.4232,-2.4229,-2.4231,-2.422,-2.4217,-2.422,-2.421,-2.4211,-2.4226,-2.424,-2.4208,-2.4209,-2.4265,-2.4267,-2.4268,-2.43,0,0,0,0,0,0,-2.4239,-2.424,-2.425,-2.4242,-2.4242,-2.426,-2.4233,-2.423,-2.4232,-2.4229,-2.4223,-2.4221,-2.4209,-2.4225,-2.4226,-2.4241,-2.4209,-2.4264,-2.4266,-2.4268,-2.4297,-2.4302,-2.4307,0,0,0,0,0,-2.4239,-2.4259,-2.425,-2.4251,-2.4253,-2.4261,-2.4261,-2.4247,-2.4233,-2.4243,-2.4236,-2.4221,-2.4239,-2.4226,-2.4228,-2.4243,-2.4262,-2.4265,-2.4268,-2.4295,-2.4301,-2.4307,0,0,0,0,0,0,-2.4269,-2.4258,-2.4248,-2.4266,-2.4265,-2.4255,-2.4266,-2.4254,-2.4257,-2.4254,-2.4237,-2.4236,-2.4253,-2.425,-2.4236,-2.4268,-2.4248,-2.4251,-2.4269,-2.4275,-2.4279,-2.4279,-2.421,0,0,0,0,0,-2.4278,-2.4285,-2.4275,-2.4292,-2.4292,-2.428,-2.4282,-2.4272,-2.427,-2.4269,-2.4263,-2.4262,-2.4267,-2.4271,-2.4276,-2.4298,-2.4296,-2.4309,-2.4314,-2.4318,-2.432,-2.4331,-2.4336,-2.4277,-2.4277,-2.4277,0,0,-2.4296,-2.4291,-2.4296,-2.4298,-2.4295,-2.4303,-2.4279,-2.4288,-2.4293,-2.4271,-2.4283,-2.428,-2.4277,-2.4296,-2.4304,-2.4293,-2.4336,-2.4321,-2.4324,-2.4324,-2.4334,-2.4339,-2.4344,-2.4279,-2.4279,-2.4278,0,0,-2.4333,-2.433,-2.4344,-2.4342,-2.4339,-2.4331,-2.4334,-2.4327,-2.4324,-2.4337,-2.432,-2.4327,-2.4336,-2.4335,-2.4336,-2.4374,-2.436,-2.4376,-2.44,-2.441,-2.4415,-2.4419,-2.4431,-2.4436,-2.4379,-2.4379,-2.4379,0,-2.4356,-2.4366,-2.4352,-2.4362,-2.4364,-2.4344,-2.4358,-2.4357,-2.4356,-2.4357,-2.4346,-2.4358,-2.4355,-2.4372,-2.4382,-2.4384,-2.4387,-2.4375,-2.4416,-2.4419,-2.4423,-2.4435,-2.4439,-2.4381,-2.438,-2.438,-2.438,0,-2.4394,-2.4402,-2.4414,-2.4412,-2.4415,-2.4427,-2.4415,-2.442,-2.4411,-2.4404,-2.4418,-2.4414,-2.4417,-2.4421,-2.4412,-2.4438,-2.4431,-2.4418,-2.4398,-2.4431,-2.4441,-2.4446,-2.4383,-2.4383,-2.4382,-2.4382,0,0,-2.4448,-2.444,-2.4444,-2.4443,-2.4439,-2.4444,-2.4456,-2.4459,-2.4463,-2.4464,-2.4472,-2.4482,-2.447,-2.4471,-2.4462,-2.4472,-2.4501,-2.4457,-2.4457,-2.4464,-2.4528,-2.4536,-2.4541,-2.4493,-2.4493,-2.4494,-2.4528,0,-2.4482,-2.45,-2.4488,-2.4509,-2.4515,-2.4497,-2.4508,-2.4506,-2.4501,-2.4506,-2.4501,-2.4507,-2.4492,-2.4492,-2.4501,-2.4495,-2.4513,-2.4493,-2.45,-2.45,-2.4499,-2.4547,-2.4556,-2.4587,-2.4532,-2.4532,-2.4533,0,-2.4523,-2.4525,-2.4545,-2.454,-2.4542,-2.4551,-2.4553,-2.4559,-2.4557,-2.4553,-2.4554,-2.4543,-2.4554,-2.4536,-2.4551,-2.4538,-2.4541,-2.4539,-2.454,-2.4538,-2.4517,-2.4545,-2.4597,-2.4601,-2.454,-2.4539,-2.4539,0,-2.4558,-2.4566,-2.4579,-2.4579,-2.4574,-2.458,-2.4578,-2.4576,-2.4579,-2.4581,-2.4582,-2.4586,-2.4588,-2.4591,-2.4581,-2.4569,-2.4598,-2.4579,-2.4594,-2.4594,-2.4598,-2.4598,-2.465,-2.4604,-2.4604,-2.4604,-2.4603,0,-2.4596,-2.4609,-2.4595,-2.4602,-2.4617,-2.4605,-2.4619,-2.4616,-2.4614,-2.4621,-2.4607,-2.4614,-2.4601,-2.4607,-2.46,-2.4613,-2.4615,-2.4611,-2.4609,-2.4611,-2.4611,-2.4611,-2.4608,-2.4605,-2.4605,-2.4604,-2.4604,0,-2.4636,-2.4627,-2.464,-2.4634,-2.4633,-2.4644,-2.4639,-2.4646,-2.4641,-2.465,-2.4652,-2.4643,-2.4649,-2.464,-2.4646,-2.4641,-2.4659,-2.4654,-2.4659,-2.4657,-2.4672,-2.467,-2.4724,-2.473,-2.4681,-2.4682,-2.4682,0,-2.466,-2.4669,-2.4664,-2.4668,-2.4667,-2.4673,-2.4676,-2.4665,-2.4668,-2.4668,-2.4675,-2.468,-2.4684,-2.4695,-2.4689,-2.4694,-2.4688,-2.4707,-2.4688,-2.469,-2.4686,-2.4685,-2.4685,-2.4709,-2.471,-2.4711,-2.4711,0,-2.4702,-2.4697,-2.4701,-2.4704,-2.4708,-2.471,-2.471,-2.4714,-2.4703,-2.4708,-2.4714,-2.4717,-2.4723,-2.4728,-2.4731,-2.4729,-2.4718,-2.4717,-2.472,-2.4722,-2.4724,-2.4722,-2.4667,-2.4715,-2.4715,-2.4715,-2.4714,-2.4714,-2.4733,-2.4741,-2.4739,-2.4744,-2.4743,-2.4745,-2.4751,-2.4747,-2.4752,-2.4755,-2.4749,-2.4757,-2.4756,-2.4759,-2.4759,-2.4765,-2.4757,-2.4762,-2.4763,-2.4764,-2.4766,-2.4725,-2.4766,-2.4766,-2.4765,-2.4765,-2.4765,0,-2.4774,-2.4772,-2.4777,-2.4778,-2.4782,-2.4772,-2.4773,-2.4777,-2.4784,-2.4784,-2.4788,-2.4795,-2.4801,-2.4796,-2.48,-2.4806,-2.4801,-2.4808,-2.4806,-2.4806,-2.4773,-2.4769,-2.4812,-2.4812,-2.4812,-2.4812,-2.4812,-2.4812,-2.4795,-2.4807,-2.4802,-2.4814,-2.4812,-2.4819,-2.482,-2.4822,-2.4822,-2.483,-2.4835,-2.4832,-2.483,-2.4834,-2.4839,-2.4837,-2.4839,-2.4847,-2.4844,-2.4813,-2.4808,-2.4804,-2.48,-2.4848,-2.4848,-2.4875,-2.4876,-2.4876]},{"header":{"parameterUnit":"m.s-1","parameterCategory":1,"la1":30.2991,"la2":30.254,"lo1":-89.0895,"lo2":-89.0444,"dy":0.0017,"dx":0.0017,"nx":28,"ny":28,"refTime":"2023-09-01T21:00:00:Z","depth":0,"parameterNumber":3,"parameterNumberName":"V-component_of_WINDS"},"data":[0,0,0,0,0,0,0,0,0,0,0,0,0,0,0,0,0,0,0,0,0,0,0,0,0,0,0,0,0,0,0,0,0,0,0,0,0,0,0,0,0,0,0,0,0,0,0,0,0,0,0,0,0,0,0,0,0,0,3.7157,3.7157,0,3.7123,3.7122,3.7122,3.7059,3.7058,3.7057,3.7056,3.7022,3.7022,3.7022,0,0,0,0,0,0,0,0,0,0,0,0,0,3.717,3.717,3.7157,3.7157,3.7156,3.7123,3.7122,3.7122,3.706,3.7058,3.7057,3.7055,3.7022,3.7022,3.7022,0,0,0,0,0,0,0,0,0,0,0,0,0,3.7153,3.717,3.7157,3.7121,3.7118,3.7123,3.7122,3.7122,3.706,3.7058,3.7056,3.7055,3.7022,3.7022,3.7022,3.706,0,0,3.7023,3.7023,0,0,0,0,0,0,0,0,3.7154,3.7153,3.7127,3.7124,3.712,3.7094,3.7114,3.7101,3.706,3.7082,3.7056,3.7054,3.7047,3.7045,3.7043,3.7059,3.7057,3.7023,3.7023,3.7023,3.7024,0,0,0,0,0,0,0,3.7155,3.7154,3.7144,3.7127,3.7122,3.7107,3.7103,3.7112,3.7075,3.708,3.7075,3.7072,3.7045,3.7043,3.7041,3.7057,3.7023,3.7023,3.7024,3.7024,3.7101,3.7103,0,0,0,0,0,0,3.7162,3.7155,3.7145,3.7143,3.7133,3.7108,3.7103,3.7104,3.7075,3.7069,3.7074,3.7069,3.7043,3.7041,3.704,3.7082,3.7023,3.7024,3.7024,3.7099,3.7101,3.7103,0,0,0,0,0,0,3.7162,3.7161,3.7146,3.7148,3.7145,3.711,3.7111,3.7104,3.7102,3.707,3.7063,3.7078,3.7041,3.704,3.7055,3.708,3.7024,3.7024,3.7097,3.71,3.7102,3.7166,0,0,0,0,0,0,3.7163,3.7162,3.7176,3.7148,3.7145,3.7162,3.7113,3.7105,3.7102,3.7096,3.7072,3.7067,3.704,3.7055,3.7056,3.7079,3.7024,3.7094,3.7098,3.7101,3.7162,3.7171,3.7178,0,0,0,0,0,3.7164,3.7196,3.7177,3.7176,3.7161,3.7163,3.7161,3.713,3.7105,3.7118,3.7098,3.7067,3.7077,3.7057,3.7057,3.7081,3.7093,3.7097,3.7101,3.7158,3.7169,3.7178,0,0,0,0,0,0,3.7227,3.7191,3.717,3.7194,3.7182,3.7153,3.7169,3.7143,3.7138,3.7132,3.7094,3.7089,3.7109,3.7097,3.7076,3.7116,3.708,3.7085,3.7123,3.7134,3.7142,3.7144,3.7025,0,0,0,0,0,3.7244,3.7248,3.7217,3.7241,3.7236,3.7204,3.7204,3.718,3.7167,3.7161,3.7142,3.713,3.713,3.7131,3.713,3.716,3.7153,3.7176,3.7185,3.7192,3.7196,3.721,3.7219,3.7117,3.7117,3.7117,0,0,3.7279,3.726,3.7265,3.7253,3.7241,3.7247,3.72,3.7208,3.7212,3.7163,3.7176,3.7162,3.7146,3.7169,3.7178,3.7159,3.7223,3.7197,3.7203,3.7203,3.7215,3.7225,3.7233,3.712,3.7119,3.7119,0,0,3.7344,3.7331,3.7349,3.7338,3.732,3.7298,3.7303,3.7278,3.7266,3.7279,3.7242,3.7246,3.7247,3.7237,3.7232,3.7295,3.7266,3.7296,3.7339,3.7353,3.7361,3.7368,3.739,3.7398,3.73,3.73,3.73,0,3.739,3.7396,3.7362,3.7372,3.7368,3.7323,3.7342,3.7333,3.7316,3.7314,3.7293,3.7294,3.728,3.7299,3.7315,3.7313,3.7316,3.7298,3.7363,3.737,3.7375,3.7395,3.7404,3.7303,3.7303,3.7303,3.7302,0,3.7452,3.7458,3.7475,3.7459,3.7457,3.7471,3.7439,3.7441,3.7418,3.7399,3.7412,3.7394,3.7388,3.7391,3.7369,3.7407,3.7396,3.737,3.7333,3.7389,3.7407,3.7415,3.7309,3.7307,3.7306,3.7305,0,0,3.7556,3.7521,3.7528,3.752,3.7498,3.7501,3.7514,3.7507,3.7509,3.7499,3.7508,3.7511,3.7486,3.7481,3.7457,3.747,3.7519,3.7441,3.744,3.7456,3.7559,3.7578,3.7588,3.75,3.7502,3.7503,3.756,0,3.7617,3.7635,3.7604,3.763,3.7634,3.7592,3.7603,3.759,3.7573,3.7574,3.7554,3.7556,3.7524,3.752,3.7531,3.7511,3.7539,3.7506,3.7508,3.7508,3.7512,3.7597,3.7618,3.7673,3.7567,3.7568,3.7569,0,3.7689,3.7682,3.7708,3.7683,3.7684,3.7694,3.7685,3.7687,3.7672,3.7658,3.7652,3.7624,3.7635,3.76,3.7613,3.7591,3.759,3.7581,3.7582,3.758,3.7542,3.7597,3.769,3.7698,3.758,3.7579,3.7578,0,3.7761,3.7759,3.7773,3.7768,3.774,3.7748,3.7737,3.772,3.7718,3.7711,3.7709,3.7703,3.77,3.7696,3.7667,3.7645,3.7684,3.7647,3.7672,3.7673,3.7682,3.7682,3.7775,3.7683,3.7683,3.7683,3.7683,0,3.7831,3.7848,3.7805,3.7814,3.7833,3.7798,3.7817,3.7801,3.7787,3.7792,3.7756,3.7762,3.7724,3.7725,3.7703,3.7717,3.7716,3.7705,3.7699,3.7708,3.7709,3.7706,3.7701,3.7685,3.7684,3.7684,3.7684,0,3.7914,3.7886,3.79,3.7872,3.7865,3.788,3.7856,3.7863,3.7844,3.7851,3.7851,3.782,3.782,3.7791,3.7785,3.777,3.7793,3.7781,3.7798,3.7794,3.7821,3.7818,3.7915,3.7925,3.7828,3.7829,3.783,0,3.796,3.7972,3.7946,3.7947,3.7937,3.7939,3.7937,3.7903,3.7902,3.7886,3.7895,3.7892,3.7888,3.789,3.7867,3.7862,3.7849,3.7883,3.7848,3.7856,3.7848,3.7847,3.7848,3.789,3.7891,3.7892,3.7893,0,3.8044,3.803,3.8027,3.8021,3.8019,3.8012,3.8002,3.8005,3.7968,3.7969,3.7969,3.7965,3.7959,3.7957,3.7948,3.7936,3.7908,3.7904,3.791,3.7919,3.7928,3.7922,3.7817,3.7902,3.7901,3.79,3.79,3.7899,3.8109,3.8118,3.8101,3.8099,3.8089,3.8081,3.8086,3.8067,3.8066,3.8058,3.8039,3.8041,3.8025,3.801,3.8001,3.8003,3.7986,3.7994,3.7996,3.7998,3.8003,3.7929,3.8001,3.8001,3.8001,3.8,3.8,0,3.8191,3.8178,3.8177,3.8165,3.8164,3.8138,3.8126,3.8127,3.813,3.8117,3.8114,3.8113,3.8111,3.8087,3.8082,3.8087,3.8075,3.8087,3.8086,3.8084,3.8019,3.8014,3.8098,3.8098,3.8098,3.8098,3.8098,3.8098,3.8233,3.8246,3.823,3.8237,3.8224,3.8226,3.8222,3.8214,3.8204,3.8205,3.8202,3.8187,3.817,3.8163,3.8159,3.8152,3.8152,3.8169,3.8158,3.8098,3.8088,3.8079,3.8074,3.8169,3.8169,3.8221,3.8222,3.8222]}]]